Hourly Weather Roundup
Issued by NWS Central Illinois

Home | Current Version | Previous Version | Text Only | Print | Product List | Glossary On
Versions: 1 2 3 4 5 6 7 8 9 10 11 12 13 14 15 16 17 18 19 20 21 22 23 24 25 26 27 28 29 30 31 32 33 34 35 36 37 38 39 40 41 42 43 44 45 46 47 48 49 50
000
NZUS43 KILX 260510
HWRILX

Area Weather Roundup
National Weather Service Lincoln IL
1200 AM CDT WED APR 26 2017

NOTE:  "FAIR" indicates few or no clouds below 12,000 feet, with
       no sigificant weather and/or obstructions to visibility.


CITY           SKY/WX    TMP DP  RH WIND       PRES   REMARKS
Bloomington    CLOUDY    67  55  65 S17       29.55F
Champaign      CLOUDY    67  54  63 SE14      29.58F
Danville       CLOUDY    67  55  65 S7        29.58F
Decatur        PTCLDY    67  57  70 S13       29.56F
Effingham      MOCLDY    65  58  78 E7        29.61S
Flora          MOCLDY    65  58  80 SE7       29.61R
Galesburg      CLOUDY    70  50  49 SE12G18   29.45F
Jacksonville   MOCLDY    70  50  49 S10G18    29.50F
Lacon          CLOUDY    68  53  59 S13G18    29.50S
Lawrenceville  MOCLDY    66  57  72 S7        29.63R
Litchfield     PTCLDY    68  51  55 S14       29.55S
$$


CITY           SKY/WX    TMP DP  RH WIND       PRES   REMARKS
Lincoln        CLOUDY    69  54  58 S12       29.54R
Macomb         CLOUDY    69  49  49 S13       29.49S
Mattoon        MOCLDY    66  57  72 S8        29.59F
Mt Carmel AP   MOCLDY    67  56  68 S7        29.62S
Olney-Noble AP PTCLDY    64  61  92 SE5       29.62S
Paris AP       CLOUDY    66  56  71 SE10      29.62S
Peoria         CLOUDY    70  51  51 S15       29.51S
Pontiac        MOCLDY    69  56  62 SE17      29.54F
Rantoul        MOCLDY    68  56  66 SE10      29.59S
Robinson       CLOUDY    65  56  73 S8        29.63S
Springfield    MOCLDY    71  50  47 S15       29.53S
Taylorville    CLOUDY    65  53  64 SE9       29.55S
$$

...REGIONAL REPORTS...


CITY           SKY/WX    TMP DP  RH WIND       PRES   REMARKS
Chicago O`Hare MOCLDY    67  52  58 S10       29.55F
Kankakee       CLOUDY    67  54  61 SE9G17    29.58F
Moline         CLOUDY    70  49  47 S14       29.43F
Mount Sterling CLOUDY    69  50  51 S12       29.47F
Mount Vernon   CLOUDY    67  57  70 S7        29.60R
Pittsfield     CLOUDY    71  52  51 S13       29.49F
Quincy         CLOUDY    72  52  49 S15G22    29.46F
Rockford       CLOUDY    68  51  54 SE14      29.51F
$$


CITY           SKY/WX    TMP DP  RH WIND       PRES   REMARKS
Burlington     CLOUDY    69  52  54 S10       29.43F
Cedar Rapids   MOCLDY    61  57  87 N7        29.42F
Des Moines     CLOUDY    50  45  83 NW20      29.50R
Kirksville     CLOUDY    62  58  86 W5        29.48R
Ottumwa        MOCLDY    61  57  87 W6        29.43F
St Louis       MOCLDY    72  50  45 S10       29.53F
$$


CITY           SKY/WX    TMP DP  RH WIND       PRES   REMARKS
Terre Haute    PTCLDY    64  54  69 SE6       29.63S
Evansville     CLEAR     67  56  67 S5        29.64R
Indianapolis   CLOUDY    65  55  70 SE9       29.65F
Lafayette      CLOUDY    65  56  72 SE7       29.62S
Madison        CLOUDY    66  50  56 SE12      29.48F
Milwaukee      CLOUDY    60  51  72 SE14      29.56F
$$





USA.gov is the U.S. government's official web portal to all federal, state and local government web resources and services.